カタログに戻る

INTELSAT 33E DEB

運用中MEO
NORAD 64402·DEBRIS· XX

打ち上げ Aug 24, 2016 から Guiana Space Centre

Loading…

次のパス (今後24時間)

TLE

最新Source: Space-Track

元期: Sep 13, 2026, 09:00 UTC

1 64402U 16053AG  26256.37558757 -.00000278  00000-0  00000-0 0  9997
2 64402   1.7348  75.4046 0131999 105.0349 257.2925  0.98355564  6734

AllMySatでINTELSAT 33E DEBをリアルタイム追跡

Download on the App Store